Location: Mascot Post Office (historical)
(40.2645°N, 99.5462°W)
Time: 02:45:52
(UTC+00:00)

USA 238 - Pass Details

Date: 14 July 2020
Orbit: 1009 x 1203 km, 63.4° (Epoch: 11 August)

Event Time Altitude Azimuth Distance (km) Brightness Sun altitude
Exits shadow 10:08:20 14° 210° (SSW) 2,513 5.1 -12.0°
Maximum altitude 10:14:08 86° 123° (ESE) 1,044 3.7 -11.2°
Drops below altitude 10° 10:21:00 10° 35° (NE) 2,905 7.4 -10.2°
Sets 10:23:42 0° 35° (NE) 3,892 8.4 -9.8°
